Location: Albuquerque Trailhead
(34.7934°N, 106.3736°W)
Time: 11:28:09
(UTC+00:00)

Exosat Rocket - Pass Details

Date: 31 October 2021
Orbit: 759 x 2516 km, 72.3° (Epoch: 08 December)

Event Time Altitude Azimuth Distance (km) Brightness Sun altitude
Exits shadow 08:17:56 13° 94° (E) 3,843 7.2 -61.3°
Maximum altitude 08:20:07 14° 81° (E) 3,918 7.3 -61.0°
Drops below altitude 10° 08:25:20 10° 54° (NE) 4,585 7.8 -60.1°
Sets 08:31:35 0° 35° (NE) 5,899 8.5 -59.1°
